Home   Weather   Windsor   Past weeks

Flag for Canada Past Weather in Windsor, Ontario, Canada — Yesterday and Last 2 Weeks

Now
59 °F

Thunderstorms. Fog.


Feels Like: 58 °F
Forecast: 60 / 63 °F
Wind: 6 mph from East

Location: Windsor Weather Station

Current Time: Sep 29, 2016 at 9:48:54 AM

Latest Report: Sep 29, 2016 at 9:00 AM


Visibility: 5 mi

Pressure: 30.12 "Hg

Humidity: 94%

Dew Point: 57 °F

Location of WindsorLocation

Past Weather in Windsor — Graph

°F

Windsor Temperature Yesterday

Maximum temperature yesterday: 61 °F (at 11:00 AM)
Minimum temperature yesterday: 54 °F (at 2:00 AM)
Average temperature yesterday: 57 °F

High & Low Weather Summary for the Past Weeks

 TemperatureHumidityPressure
High86 °F (Sep 22, 2:00 PM)100% (Sep 17, 9:00 AM)30.30 "Hg (Sep 17, 9:00 AM)
Low52 °F (Sep 16, 6:00 AM)26% (Sep 27, 5:00 PM)29.72 "Hg (Sep 27, 3:00 PM)
Average66 °F77%30.06 "Hg
* Reported Sep 14 8:00 AM — Sep 29 8:00 AM, Windsor, Weather by CustomWeather, © 2016

Note: Actual official high and low records may vary slightly from our data, if they occured in-between our weather recording intervals... More about our weather records

Advertising

Windsor Weather History for the Previous 24 Hours

Scroll right to see more
 ConditionsComfort  
Time TempWeatherWind HumidityBarometerVisibility
8:00 AM
Thu, Sep 29
61 °FThunderstorms. Fog.7 mph100%30.07 "Hg4 mi
7:00 AM61 °FLight rain. Overcast.16 mph100%30.03 "Hg10 mi
6:00 AM61 °FLight rain. Fog.23 mph94%30.02 "Hg5 mi
5:45 AM61 °FFog.20 mph94%30.01 "Hg5 mi
5:00 AM61 °FHeavy rain. Low clouds.15 mph100%30.01 "Hg8 mi
4:52 AM61 °FLight rain. Overcast.17 mph100%30.01 "Hg8 mi
4:00 AM61 °FLight rain. Overcast.17 mph100%30.00 "Hg8 mi
3:00 AM61 °FHeavy rain. Fog.12 mph94%30.00 "Hg2 mi
2:00 AM61 °FLight rain. Overcast.8 mph94%30.00 "Hg7 mi
1:00 AM59 °FLight rain. Overcast.12 mph100%30.01 "Hg7 mi
12:00 AM59 °FLight rain. Overcast.12 mph94%30.02 "Hg7 mi
11:47 PM
Wed, Sep 28
59 °FLight rain. Fog.10 mph94%30.03 "Hg6 mi
11:00 PM57 °FRain. Fog.10 mph100%30.02 "Hg4 mi
10:00 PM59 °FThunderstorms. Fog.9 mph94%30.02 "Hg4 mi
9:50 PM61 °FThunderstorms. Fog.15 mph88%30.02 "Hg4 mi
9:00 PM61 °FLight rain. Fog.13 mph88%29.99 "Hg6 mi
8:00 PM59 °FRain. Overcast.15 mph94%30.00 "Hg2 mi
7:00 PM59 °FMore clouds than sun.6 mph94%29.98 "Hg8 mi
6:00 PM59 °FLight rain. Overcast.5 mph100%29.95 "Hg8 mi
5:00 PM59 °FLight rain. Overcast.2 mph94%29.94 "Hg8 mi
4:00 PM59 °FLight rain. Fog.3 mph94%29.94 "Hg6 mi
3:00 PM59 °FLight rain. Fog.2 mph94%29.93 "Hg6 mi
2:00 PM59 °FSprinkles. Fog.7 mph88%29.93 "Hg6 mi
1:00 PM59 °FSprinkles. More clouds than sun.10 mph88%29.90 "Hg6 mi
12:00 PM59 °FSprinkles. Fog.6 mph88%29.90 "Hg5 mi
11:00 AM61 °FSprinkles. Mostly cloudy.3 mph72%29.89 "Hg12 mi
10:00 AM59 °FSprinkles. More clouds than sun.10 mph77%29.89 "Hg12 mi
9:00 AM55 °FScattered showers. Partly sunny.6 mph77%29.87 "Hg15 mi
Weather by CustomWeather, © 2016

See weather overviewHow to use our weather pages